Regional Weather Roundup
Issued by NWS

Home | Current Version | Previous Version | Text Only | Print | Product List | Glossary On
Versions: 1 2 3 4 5 6 7 8 9 10 11 12 13 14 15 16 17 18 19 20 21 22 23 24 25 26 27 28 29 30 31 32 33 34 35 36 37 38 39 40 41 42 43 44 45 46 47 48 49 50
000
ASCA42 TJSJ 031410
RWRPR
PUERTO RICO/U.S. VIRGIN ISLANDS HOURLY WEATHER ROUNDUP
NATIONAL WEATHER SERVICE SAN JUAN PR
1000 AM AST MON AUG 03 2015

PRZ001-004-031500-
PUERTO RICO

CITY           SKY/WX    TMP DP  RH WIND       PRES   REMARKS
SAN JUAN LMM   MOSUNNY   88  73  62 E12G24    30.03R HX  96
AGUADILLA      MOSUNNY   84  73  70 E14       30.02  HX  91
$$

PRZ006-007-031500-
U.S. VIRGIN ISLANDS

CITY           SKY/WX    TMP DP  RH WIND       PRES   REMARKS
CHARLOTTE AMA  PTSUNNY   88  75  66 SE14G23   30.03R HX  97
CHRISTIANSTED  MOSUNNY   88  72  58 E18       30.03R HX  94
$$

HOURLY WEATHER ROUNDUP FOR THE NEWS MEDIA

CITY           SKY/WX    TMP DP  RH WIND       PRES   REMARKS
ORLANDO        LGT RAIN  76  75  97 SW15      29.96S
NEW YORK       MOSUNNY   82  65  56 SW10      29.86S
NEWARK         MOSUNNY   84  62  47 SW13G18   29.84S
CHICAGO        MOSUNNY   73  58  59 N14       29.84R
HARTFORD       SUNNY     81  68  64 SW12      29.87S
BOSTON         SUNNY     83  62  49 SW13      29.84F
DALLAS         MOSUNNY   84  64  50 SE5       29.93R
PHILADELPHIA   MOSUNNY   83  63  50 SW15      29.87S
LOS ANGELES    PTCLDY    68  64  87 VRB3      29.89S
WASHINGTON DC  MOSUNNY   78  64  61 CALM      29.88F


USA.gov is the U.S. government's official web portal to all federal, state and local government web resources and services.